Flag for U.S.A. Weather past 2 weeks in Chesapeake, Virginia, U.S.A.

Now
86 °F

Sunny.


Feels Like: 89 °F
Forecast: 69 / 86 °F
Wind: 12 mph from East

Location: Chesapeake Municipal Airport

Current Time: May 29, 2015 at 4:51:17 PM

Latest Report: May 29, 2015 at 4:15 PM


Visibility: 10 mi

Pressure: 30.22 "Hg

Humidity: 55%

Dew point: 68 °F

Location of ChesapeakeLocation

Historic Weather in Chesapeake — Graph

°F

Chesapeake temperature yesterday

Maximum temperature yesterday: 88 °F (at 3:55 PM)
Minimum temperature yesterday: 72 °F (at 1:15 AM)
Average temperature yesterday: 78 °F

Past Weeks' High & Low Weather Summary

 TemperatureHumidityPressure
High91 °F (May 18, 1:15 PM)100% (May 15, 6:35 AM)30.45 "Hg (May 15, 6:35 AM)
Low48 °F (May 15, 6:35 AM)33% (May 22, 2:55 PM)29.77 "Hg (May 21, 3:35 PM)
Average72 °F71%30.19 "Hg
* Reported May 14 3:15 PM — May 29 3:55 PM, Chesapeake, Weather by CustomWeather, © 2015

Note: Actual official high and low records may vary slightly from our data, if they occured in-between our weather recording intervals... More about our weather records

Advertising

Chesapeake weather history for previous 24 hours

 ConditionsComfort  
Time TempWeatherWind HumidityBarometerVisibility
3:55 PM
Fri, May 29
86 °FSunny.8 mph55%30.22 "Hg10 mi
3:35 PM84 °FSunny.7 mph62%30.23 "Hg10 mi
3:15 PM86 °FScattered clouds.8 mph59%30.23 "Hg10 mi
2:55 PM86 °FScattered clouds.12 mph55%30.23 "Hg7 mi
2:35 PM86 °FScattered clouds.6 mph55%30.24 "Hg10 mi
2:15 PM86 °FSunny.5 mph49%30.24 "Hg10 mi
1:55 PM86 °FScattered clouds.No wind46%30.24 "Hg10 mi
1:35 PM88 °FScattered clouds.6 mph46%30.25 "Hg10 mi
1:15 PM88 °FScattered clouds.No wind43%30.25 "Hg10 mi
12:55 PM86 °FScattered clouds.6 mph49%30.25 "Hg10 mi
12:35 PM84 °FSunny.6 mph51%30.26 "Hg10 mi
12:15 PM84 °FSunny.3 mph48%30.26 "Hg10 mi
11:55 AM84 °FSunny.No wind48%30.26 "Hg10 mi
11:35 AM84 °FSunny.5 mph48%30.26 "Hg10 mi
11:15 AM82 °FSunny.No wind48%30.27 "Hg10 mi
10:55 AM82 °FSunny.No wind55%30.27 "Hg10 mi
10:35 AM81 °FSunny.3 mph58%30.26 "Hg10 mi
10:15 AM81 °FSunny.No wind58%30.26 "Hg10 mi
9:55 AM81 °FScattered clouds.6 mph62%30.26 "Hg10 mi
9:35 AM79 °FScattered clouds.5 mph65%30.26 "Hg10 mi
9:15 AM79 °FSunny.6 mph65%30.26 "Hg10 mi
8:55 AM79 °FScattered clouds.6 mph65%30.26 "Hg10 mi
8:35 AM77 °FPartly sunny.7 mph69%30.26 "Hg10 mi
8:15 AM75 °FScattered clouds.5 mph74%30.26 "Hg10 mi
7:55 AM75 °FSunny.No wind78%30.26 "Hg10 mi
7:35 AM73 °FSunny.No wind83%30.25 "Hg10 mi
7:15 AM72 °FScattered clouds.No wind83%30.25 "Hg10 mi
6:55 AM70 °FScattered clouds.No wind88%30.24 "Hg10 mi
6:35 AM68 °FPassing clouds.No wind94%30.24 "Hg10 mi
6:15 AM68 °FClear.No wind94%30.23 "Hg10 mi
5:55 AM70 °FPartly cloudy.No wind88%30.23 "Hg10 mi
5:35 AM70 °FPassing clouds.No wind88%30.23 "Hg10 mi
5:15 AM70 °FOvercast.No wind88%30.23 "Hg10 mi
4:55 AM70 °FPassing clouds.No wind88%30.23 "Hg10 mi
4:15 AM70 °FPassing clouds.No wind88%30.22 "Hg10 mi
3:55 AM72 °FPartly cloudy.No wind83%30.22 "Hg10 mi
3:35 AM72 °FOvercast.3 mph83%30.22 "Hg10 mi
3:15 AM72 °FPassing clouds.No wind83%30.22 "Hg10 mi
2:55 AM72 °FPartly cloudy.No wind83%30.22 "Hg10 mi
2:35 AM72 °FMostly cloudy.No wind83%30.23 "Hg10 mi
2:15 AM72 °FOvercast.No wind83%30.23 "Hg10 mi
1:55 AM72 °FPartly cloudy.3 mph83%30.23 "Hg10 mi
1:35 AM72 °FPassing clouds.3 mph83%30.23 "Hg10 mi
1:15 AM72 °FPassing clouds.3 mph83%30.23 "Hg10 mi
12:55 AM73 °FPassing clouds.3 mph78%30.24 "Hg10 mi
12:35 AM73 °FMostly cloudy.5 mph78%30.23 "Hg10 mi
12:15 AM73 °FPassing clouds.3 mph78%30.24 "Hg10 mi
11:15 PM
Thu, May 28
73 °FClear.3 mph78%30.24 "Hg10 mi
10:55 PM75 °FClear.5 mph74%30.23 "Hg10 mi
10:35 PM75 °FClear.6 mph78%30.22 "Hg10 mi
10:15 PM75 °FClear.5 mph78%30.22 "Hg10 mi
9:55 PM75 °FClear.5 mph78%30.22 "Hg10 mi
9:35 PM75 °FClear.No wind78%30.22 "Hg10 mi
9:15 PM79 °FClear.3 mph70%30.21 "Hg10 mi
8:55 PM79 °FSunny.5 mph70%30.20 "Hg10 mi
8:15 PM81 °FSunny.5 mph70%30.19 "Hg10 mi
7:55 PM81 °FSunny.6 mph70%30.19 "Hg10 mi
7:15 PM82 °FSunny.5 mph66%30.18 "Hg10 mi
5:55 PM86 °FBroken clouds.8 mph62%30.17 "Hg10 mi
5:15 PM84 °FScattered clouds.No wind66%30.17 "Hg10 mi
4:55 PM84 °FCloudy.3 mph66%30.18 "Hg10 mi
4:35 PM84 °FBroken clouds.7 mph66%30.19 "Hg10 mi
4:15 PM86 °FPartly sunny.6 mph62%30.18 "Hg10 mi
Weather by CustomWeather, © 2015

See weather overviewHow to use our weather pages